Location: Umburanas
(4.5000°S, 37.9667°W)
Time: 04:38:04
(UTC+00:00)

Cosmos 2297 Rocket - Pass Details

Date: 19 November 2019
Orbit: 839 x 843 km, 71.0° (Epoch: 08 December)

Event Time Altitude Azimuth Distance (km) Brightness Sun altitude
Rises 21:15:42 0° 332° (NNW) 3,383 5.4 -12.2°
Reaches altitude 10° 21:18:14 10° 326° (NW) 2,452 4.8 -12.7°
Maximum altitude 21:23:34 45° 254° (WSW) 1,139 3.4 -14.0°
Drops below altitude 10° 21:28:56 10° 182° (S) 2,464 4.9 -15.2°
Sets 21:31:30 0° 176° (S) 3,402 5.6 -15.8°
